WESTFORD NEEDLES, 3257

Orbit data source: Space-Track

WESTFORD NEEDLES, 3257 is space debris in LEO originally from a launch on Thu, 09 May 1963 UTC launched from the Air Force Western Test Range (AFWTR). Debris objects in space refer to the collection of defunct objects orbiting the Earth. Examples of debris include non-operational satellites, rocket bodies, and fragments generated from explosions, collisions, or faulty payload assembly.

Loading next visibility...
Identifier
3257, 1963-014BX
Orbit
LEO
Country
Flag of USUS
Related business
Manufacturer
Unknown
Mission
Spacecraft
Bus & Motor
Unknown
Mass
Unknown
Launch date (UTC)
1963-05-09 (63 years ago)
Launch vehicle
Unknown
Launch site
Air Force Western Test Range (AFWTR)
Object type
Payload
Rocket body
Debris
Shape & HBR
Unknown shape, 1.1 m
Radar Cross Section
Medium (>0.1 m² and <1 m²)

Expand to show TLE details & history
Last TLE update: 3 days ago

TLE from 3 days ago
0 WESTFORD NEEDLES
1  3257U 63014BX  26142.40364245 -.00000066  00000-0 -29726-1 0  9995
2  3257  87.3238 150.5824 0410387 187.8794 171.5467  8.65530557 57706
Epoch: 2026-05-22T09:41Z
TLE epoch observation values (Epoch: 2026-05-22T09:41:14.707Z)
Latitude
Longitude
125.23613°
Altitude
4,051.482 km
Speed
6.056 km/s
True Right ascension
10h 02m 19s
True Declination
0° 00' 00"
Sunlit
Object was in daylight at epoch
Visualization orbit readout
Latitude
Unknown
Longitude
Unknown
Altitude
Unknown
Speed
Unknown
Apparent Right ascension
Unknown
Apparent Declination
Unknown
Sunlit
N/A
Visualization observer readout
Local Sidereal Time
15:43:06
Azimuth
Unknown
Elevation
Unknown
Doppler factor
Unknown
Orbital elements
Apogee altitude
4,051.1 km
Perigee altitude
3,228.839 km
Semi-major axis
10,018.107 km
Eccentricity
0.04104
Inclination
87.3238°
RAAN
150.5824°
Arg. of periapsis
187.8794°
True anomaly
172.20455°
Mean anomaly
171.5467°
Eccentric anomaly
171.87887°
Mean motion
2.16454 °/min
Orbital period
166.32 mins
BSTAR
-0.029726

Documentation

Showing up to 5 results
|